Weather History for KMIE - January, 2013

Change the Weather History Date:

Saturday, January 19, 2013

  Actual Average Record
Temperature  
Mean Temperature 46 °F 26 °F  
Max Temperature 53 °F 34 °F 62 °F (1973)
Min Temperature 38 °F 19 °F -13 °F (1984)
Degree Days  
Heating Degree Days 19 39  
Month to date heating degree days 540 732  
Since 1 July heating degree days 2631 2930  
Cooling Degree Days 0 0  
Month to date cooling degree days 0 0  
Year to date cooling degree days 0 0  
Moisture  
Dew Point 26 °F    
Average Humidity 47    
Maximum Humidity 56    
Minimum Humidity 38    
Precipitation  
Precipitation 0.00 in 0.06 in 0.70 in (1974)
Month to date precipitation 2.81 1.36  
Year to date precipitation 2.81 1.36  
Sea Level Pressure  
Sea Level Pressure 29.98 in    
Wind  
Wind Speed 16 mph (SW)    
Max Wind Speed 26 mph    
Max Gust Speed 38 mph    
Visibility 10 miles    
Events      
T = Trace of Precipitation, MM = Missing Value Source: NWS Daily Summary

Daily Weather History Graph

Daily Weather History Graph

Search for Another Location

Airport or City:

Trip Planner

Search our weather history database for the weather conditions in past years. The results will help you decide how hot, cold, wet, or windy it might be!

Date:

Astronomy

Jan. 19, 2013 Rise Set
Actual Time 8:00 AM EST 5:45 PM EST
Civil Twilight 7:30 AM EST 6:14 PM EST
Nautical Twilight 6:57 AM EST 6:47 PM EST
Astronomical Twilight 6:24 AM EST 7:20 PM EST
Moon 12:10 PM EST (1/19) 1:33 AM EST (1/19)
Length of Visible Light 10h 44m
Length of Day
9h 44m
First Quarter, 57% of the Moon is Illuminated
Jan 19
First Quarter
Jan 26
Full
Feb 3
Last Quarter
Feb 10
New
Feb 17
First Quarter

Hourly Weather History & Observations

Time (EST) Temp. Windchill Dew Point Humidity Pressure Visibility Wind Dir Wind Speed Gust Speed Precip Events Conditions
12:53 AM 39.0 °F 30.3 °F 21.9 °F 50% 30.11 in 10.0 mi SW 16.1 mph 25.3 mph N/A   Clear
1:53 AM 39.0 °F 31.0 °F 21.9 °F 50% 30.12 in 10.0 mi SW 13.8 mph 25.3 mph N/A   Clear
2:53 AM 37.9 °F 29.6 °F 21.9 °F 53% 30.12 in 10.0 mi SW 13.8 mph 26.5 mph N/A   Clear
3:53 AM 37.9 °F 30.0 °F 21.0 °F 51% 30.11 in 10.0 mi SW 12.7 mph 23.0 mph N/A   Clear
4:53 AM 39.0 °F 30.3 °F 21.0 °F 49% 30.09 in 10.0 mi SW 16.1 mph - N/A   Clear
5:53 AM 39.0 °F 30.6 °F 21.0 °F 49% 30.08 in 10.0 mi SW 15.0 mph - N/A   Clear
6:53 AM 37.9 °F 29.2 °F 21.0 °F 51% 30.07 in 10.0 mi SW 15.0 mph - N/A   Clear
7:53 AM 37.9 °F 29.6 °F 21.9 °F 53% 30.07 in 10.0 mi SSW 13.8 mph 20.7 mph N/A   Clear
8:53 AM 39.9 °F 31.8 °F 23.0 °F 51% 30.06 in 10.0 mi SW 15.0 mph 26.5 mph N/A   Clear
9:53 AM 42.1 °F 33.6 °F 23.0 °F 47% 30.06 in 10.0 mi SW 18.4 mph 27.6 mph N/A   Clear
10:53 AM 44.1 °F 36.2 °F 25.0 °F 47% 30.06 in 10.0 mi SW 18.4 mph 27.6 mph N/A   Clear
11:53 AM 46.9 °F - 25.0 °F 42% 30.01 in 10.0 mi SW 17.3 mph 34.5 mph N/A   Clear
12:53 PM 48.9 °F - 26.1 °F 41% 29.96 in 10.0 mi SSW 18.4 mph 28.8 mph N/A   Clear
1:53 PM 51.1 °F - 28.0 °F 41% 29.92 in 10.0 mi SSW 17.3 mph 28.8 mph N/A   Clear
2:53 PM 52.0 °F - 28.0 °F 40% 29.88 in 10.0 mi SW 17.3 mph 31.1 mph N/A   Clear
3:53 PM 53.1 °F - 28.9 °F 40% 29.86 in 10.0 mi SW 17.3 mph 31.1 mph N/A   Clear
4:53 PM 53.1 °F - 28.9 °F 40% 29.85 in 10.0 mi SW 19.6 mph 26.5 mph N/A   Clear
5:53 PM 51.1 °F - 28.9 °F 43% 29.86 in 10.0 mi SW 12.7 mph - N/A   Clear
6:53 PM 48.9 °F - 30.0 °F 48% 29.85 in 10.0 mi SW 12.7 mph - N/A   Clear
7:53 PM 48.0 °F - 30.9 °F 52% 29.86 in 10.0 mi SW 10.4 mph 20.7 mph N/A   Clear
8:53 PM 48.0 °F - 30.9 °F 52% 29.86 in 10.0 mi SW 10.4 mph - N/A   Clear
9:53 PM 48.0 °F - 32.0 °F 54% 29.86 in 10.0 mi WSW 17.3 mph 27.6 mph N/A   Clear
10:53 PM 48.0 °F - 33.1 °F 56% 29.85 in 10.0 mi WSW 17.3 mph 27.6 mph N/A   Clear
11:53 PM 46.9 °F - 33.1 °F 59% 29.86 in 10.0 mi West 19.6 mph 28.8 mph N/A   Clear